Location: Arboucave
(43.6130°N, 0.4343°W)
Time: 08:00:44
(UTC+00:00)

Cosmos 968 Rocket - Pass Details

Date: 17 November 2025
Orbit: 735 x 766 km, 74.0° (Epoch: 13 December)

Event Time Altitude Azimuth Distance (km) Brightness Sun altitude
Rises 18:55:28 0° 189° (S) 3,169 6.8 -25.4°
Reaches altitude 10° 18:57:49 10° 186° (S) 2,254 6.0 -25.8°
Enters shadow 19:00:39 33° 175° (S) 1,239 4.5 -26.3°
